2022/12/18 00:00:00, 4.6,-2.5
2022/12/18 00:10:00, 5.7,-2.8
2022/12/18 00:20:00, 7.2,-2.5
2022/12/18 00:30:00, 7.5,-2.7
2022/12/18 00:40:00, 7.8,-2.4
2022/12/18 00:50:00, 8.5,-2.3
2022/12/18 01:00:00, 9.4,-2.8
2022/12/18 01:10:00, 9.8,-2.7
2022/12/18 01:20:00,10.7,-3.0
2022/12/18 01:30:00,11.7,-3.1
2022/12/18 01:40:00,12.2,-3.2
2022/12/18 01:50:00,12.7,-3.2
2022/12/18 02:00:00,13.0,-3.2
2022/12/18 02:10:00,13.6,-3.2
2022/12/18 02:20:00,14.2,-3.6
2022/12/18 02:30:00,15.2,-3.5
2022/12/18 02:40:00,15.7,-3.6
2022/12/18 02:50:00,16.5,-3.7
2022/12/18 03:00:00,17.2,-3.9
2022/12/18 03:10:00,17.2,-3.9
2022/12/18 03:20:00,17.5,-4.1
2022/12/18 03:30:00,18.0,-4.1
2022/12/18 03:40:00,18.2,-4.3
2022/12/18 03:50:00,18.3,-4.7
2022/12/18 04:00:00,18.3,-4.6
2022/12/18 04:10:00,18.4,-4.5
2022/12/18 04:20:00,18.5,-4.7
2022/12/18 04:30:00,18.5,-4.8
2022/12/18 04:40:00,18.4,-5.0
2022/12/18 04:50:00,18.5,-5.1
2022/12/18 05:00:00,18.4,-5.1
2022/12/18 05:10:00,18.4,-4.9
2022/12/18 05:20:00,18.2,-5.1
2022/12/18 05:30:00,18.3,-5.3
2022/12/18 05:40:00,18.3,-5.3
2022/12/18 05:50:00,18.2,-5.5
2022/12/18 06:00:00,18.3,-5.2
2022/12/18 06:10:00,18.6,-5.4
2022/12/18 06:20:00,18.7,-5.4
2022/12/18 06:30:00,18.7,-5.5
2022/12/18 06:40:00,18.8,-5.5
2022/12/18 06:50:00,18.8,-5.6
2022/12/18 07:00:00,18.7,-5.7
2022/12/18 07:10:00,18.6,-5.5
2022/12/18 07:20:00,18.5,-5.6
2022/12/18 07:30:00,18.7,-5.6
2022/12/18 07:40:00,18.8,-5.8
2022/12/18 07:50:00,18.8,-5.6
2022/12/18 08:00:00,18.8,-5.7
2022/12/18 08:10:00,18.7,-5.8
2022/12/18 08:20:00,18.5,-5.6
2022/12/18 08:30:00,18.4,-5.8
2022/12/18 08:40:00,18.5,-5.6
2022/12/18 08:50:00,18.5,-5.2
2022/12/18 09:00:00,18.4,-5.6
2022/12/18 09:10:00,18.3,-5.0
2022/12/18 09:20:00,18.2,-5.1
2022/12/18 09:30:00,18.1,-5.1
2022/12/18 09:40:00,18.2,-5.8
2022/12/18 09:50:00,18.2,-6.1
2022/12/18 10:00:00,18.1,-5.8
2022/12/18 10:10:00,18.2,-5.9
2022/12/18 10:20:00,18.1,-5.4
2022/12/18 10:30:00,18.0,-5.4
2022/12/18 10:40:00,17.9,-5.2
2022/12/18 10:50:00,18.2,-5.5
2022/12/18 11:00:00,18.4,-5.9
2022/12/18 11:10:00,18.4,-5.6
2022/12/18 11:20:00,18.5,-5.3
2022/12/18 11:30:00,18.5,-5.8
2022/12/18 11:40:00,18.6,-5.6
2022/12/18 11:50:00,18.8,-5.6
2022/12/18 12:00:00,18.9,-5.6
2022/12/18 12:10:00,19.3,-5.7
2022/12/18 12:20:00,19.3,-5.9
2022/12/18 12:30:00,19.5,-5.7
2022/12/18 12:40:00,20.2,-5.8
2022/12/18 12:50:00,20.5,-5.6
2022/12/18 13:00:00,20.8,-5.4
2022/12/18 13:10:00,20.9,-5.3
2022/12/18 13:20:00,21.0,-5.3
2022/12/18 13:30:00,22.0,-5.4
2022/12/18 13:40:00,22.2,-5.1
2022/12/18 13:50:00,22.3,-5.2
2022/12/18 14:00:00,22.8,-5.4
2022/12/18 14:10:00,23.9,-5.4
2022/12/18 14:30:00,---,-5.1
2022/12/18 14:40:00,25.4,-5.2
2022/12/18 14:50:00,25.6,-5.2
2022/12/18 15:00:00,29.8,-4.9
2022/12/18 15:10:00,30.7,-4.9
2022/12/18 15:20:00,30.5,-5.0
2022/12/18 15:30:00,30.3,-5.1
2022/12/18 15:40:00,30.6,-5.8
2022/12/18 15:50:00,30.4,-5.5
2022/12/18 16:00:00,30.2,-5.6
2022/12/18 16:10:00,30.1,-5.7
2022/12/18 16:20:00,30.1,-5.6
2022/12/18 16:30:00,29.9,-5.6
2022/12/18 16:40:00, 0.0,-5.6
2022/12/18 16:50:00,30.2,-5.7
2022/12/18 17:00:00,30.3,-5.5
2022/12/18 17:10:00,30.1,-5.4
2022/12/18 17:20:00,30.0,-5.2
2022/12/18 17:30:00,30.0,-5.5
2022/12/18 17:40:00,30.0,-5.2
2022/12/18 17:50:00,30.1,-5.5
2022/12/18 18:00:00,30.2,-5.6
2022/12/18 18:10:00,30.4,-5.4
2022/12/18 18:20:00,30.5,-5.3
2022/12/18 18:30:00,30.5,-5.3
2022/12/18 18:40:00,30.8,-5.2
2022/12/18 18:50:00,30.8,-5.5
2022/12/18 19:00:00,30.8,-5.5
2022/12/18 19:10:00,30.9,-5.5
2022/12/18 19:20:00,30.8,-5.7
2022/12/18 19:30:00,30.8,-5.7
2022/12/18 19:40:00,31.0,-5.3
2022/12/18 19:50:00,31.2,-5.4
2022/12/18 20:00:00,31.5,-5.2
2022/12/18 20:10:00,31.9,-5.2
2022/12/18 20:20:00,32.3,-5.5
2022/12/18 20:30:00,32.6,-5.6
2022/12/18 20:40:00,33.2,-5.2
2022/12/18 20:50:00,33.2,-5.2
2022/12/18 21:00:00,33.0,-5.2
2022/12/18 21:10:00,33.2,-5.0
2022/12/18 21:20:00,33.4,-5.2
2022/12/18 21:30:00,33.7,-5.4
2022/12/18 21:40:00,33.7,-5.2
2022/12/18 21:50:00,33.6,-5.2
2022/12/18 22:00:00,34.0,-5.1
2022/12/18 22:10:00,34.4,-4.9
2022/12/18 22:20:00,34.6,-5.2
2022/12/18 22:30:00,34.9,-5.0
2022/12/18 22:40:00,35.2,-5.1
2022/12/18 22:50:00,35.5,-4.9
2022/12/18 23:00:00,35.5,-5.1
2022/12/18 23:10:00,35.4,-4.9
2022/12/18 23:20:00,35.4,-5.3
2022/12/18 23:30:00,35.1,-5.2
2022/12/18 23:40:00,35.1,-5.1
2022/12/18 23:50:00,35.4,-5.0
